Regional Weather Roundup
Issued by NWS

Home | Current Version | Previous Version | Text Only | Print | Product List | Glossary On
Versions: 1 2 3 4 5 6 7 8 9 10 11 12 13 14 15 16 17 18 19 20 21 22 23 24 25 26 27 28 29 30 31 32 33 34 35 36 37 38 39 40 41 42 43 44 45 46 47 48 49 50
000
ASUS43 KLSX 170057
RWRMO

WEATHER SUMMARY FOR MISSOURI
NATIONAL WEATHER SERVICE SPRINGFIELD MO
800 PM CDT WED AUG 16 2017

NOTE: "FAIR" INDICATES FEW OR NO CLOUDS BELOW 12,000 FEET WITH NO
       SIGNIFICANT WEATHER AND/OR OBSTRUCTIONS TO VISIBILITY.
       CURRENT SKY AND/OR WEATHER CONDITIONS ARE NOT AVAILABLE FOR
       CHILLICOTHE AND FARMINGTON.

MOZ001>031-035>038-043-044-053-054-170200-
...NORTHERN AND WESTERN MISSOURI...

CITY           SKY/WX    TMP DP  RH WIND       PRES   REMARKS
KANSAS CTY INT CLOUDY    76  72  87 S3        29.82R
LEE`S SUMMIT   CLOUDY    71  70  96 S12       29.83F
ST JOSEPH      CLOUDY    79  73  82 SW5       29.79R
CHILLICOTHE      N/A     76  74  93 S7        29.83R

$$
MOZ066>068-077>081-088>096-101>105-170200-
...SOUTHWEST MISSOURI...

CITY           SKY/WX    TMP DP  RH WIND       PRES   REMARKS
SPRINGFIELD    PTCLDY    78  74  87 S7        29.92R
JOPLIN         PTCLDY    81  75  82 S6        29.89R
BRANSON        MOCLDY    81  73  78 S6        29.94R

$$
MOZ032>034-039>042-045>050-055>058-069>072-170200-
...CENTRAL MISSOURI...

CITY           SKY/WX    TMP DP  RH WIND       PRES   REMARKS
COLUMBIA       NOT AVBL
JEFFERSON CITY CLOUDY    74  73  97 SE6       29.87R
ROLLA          CLOUDY    71  70  96 SE8       29.92R
SEDALIA        TSTM      75  74  96 W16G25    29.88R FOG
WARRENSBURG    CLOUDY    68  64  88 SE15      29.83F

$$
MOZ051-052-059>065-170200-
...EAST CENTRAL MISSOURI...

CITY           SKY/WX    TMP DP  RH WIND       PRES   REMARKS
ST LOUIS INTL  LGT RAIN  73  72  96 S12G18    29.90F

$$
MOZ072>076-082>087-097>100-106>115-170200-
...SOUTH CENTRAL AND SOUTHEAST MISSOURI...

CITY           SKY/WX    TMP DP  RH WIND       PRES   REMARKS
CAPE GIRARDEAU CLOUDY    80  75  84 SW6       29.94S
POPLAR BLUFF   CLOUDY    81  78  91 S7        29.92F
WEST PLAINS    PTCLDY    82  71  69 S5        29.97R

$$



USA.gov is the U.S. government's official web portal to all federal, state and local government web resources and services.